Year,Month,Day,Hour,Minute,Value (Times are PST for windgust in km/hr)
2021,12,31,00,00,3.20
2021,12,31,00,01,3.20
2021,12,31,00,02,1.60
2021,12,31,00,03,3.20
2021,12,31,00,04,4.80
2021,12,31,00,05,4.80
2021,12,31,00,06,3.20
2021,12,31,00,07,4.80
2021,12,31,00,08,4.80
2021,12,31,00,09,1.60
2021,12,31,00,10,1.60
2021,12,31,00,11,3.20
2021,12,31,00,12,3.20
2021,12,31,00,14,1.60
2021,12,31,00,15,6.40
2021,12,31,00,16,3.20
2021,12,31,00,17,6.40
2021,12,31,00,18,3.20
2021,12,31,00,19,4.80
2021,12,31,00,20,3.20
2021,12,31,00,21,4.80
2021,12,31,00,22,4.80
2021,12,31,00,23,3.20
2021,12,31,00,24,4.80
2021,12,31,00,25,3.20
2021,12,31,00,26,6.40
2021,12,31,00,27,3.20
2021,12,31,00,28,3.20
2021,12,31,00,29,1.60
2021,12,31,00,30,4.80
2021,12,31,00,31,3.20
2021,12,31,00,32,1.60
2021,12,31,00,33,3.20
2021,12,31,00,34,3.20
2021,12,31,00,35,4.80
2021,12,31,00,36,4.80
2021,12,31,00,37,3.20
2021,12,31,00,38,4.80
2021,12,31,00,39,4.80
2021,12,31,00,40,3.20
2021,12,31,00,41,1.60
2021,12,31,00,42,3.20
2021,12,31,00,43,3.20
2021,12,31,00,44,1.60
2021,12,31,00,45,3.20
2021,12,31,00,46,4.80
2021,12,31,00,47,8.10
2021,12,31,00,48,4.80
2021,12,31,00,49,8.10
2021,12,31,00,50,6.40
2021,12,31,00,51,4.80
2021,12,31,00,52,4.80
2021,12,31,00,53,8.10
2021,12,31,00,54,6.40
2021,12,31,00,55,6.40
2021,12,31,00,56,3.20
2021,12,31,00,57,1.60
2021,12,31,00,58,1.60
2021,12,31,00,59,1.60
2021,12,31,01,02,3.20
2021,12,31,01,03,4.80
2021,12,31,01,04,4.80
2021,12,31,01,05,4.80
2021,12,31,01,06,6.40
2021,12,31,01,07,3.20
2021,12,31,01,08,3.20
2021,12,31,01,09,4.80
2021,12,31,01,10,4.80
2021,12,31,01,11,3.20
2021,12,31,01,12,1.60
2021,12,31,01,25,1.60
2021,12,31,01,26,1.60
2021,12,31,01,27,3.20
2021,12,31,01,28,3.20
2021,12,31,01,29,3.20
2021,12,31,01,30,3.20
2021,12,31,01,31,3.20
2021,12,31,01,32,1.60
2021,12,31,01,35,4.80
2021,12,31,01,36,4.80
2021,12,31,01,37,3.20
2021,12,31,01,38,3.20
2021,12,31,01,39,4.80
2021,12,31,01,40,4.80
2021,12,31,01,41,1.60
2021,12,31,01,42,4.80
2021,12,31,01,43,4.80
2021,12,31,01,44,3.20
2021,12,31,01,45,4.80
2021,12,31,01,46,3.20
2021,12,31,01,47,3.20
2021,12,31,01,48,4.80
2021,12,31,01,49,3.20
2021,12,31,01,50,4.80
2021,12,31,01,51,1.60
2021,12,31,01,53,3.20
2021,12,31,01,54,6.40
2021,12,31,01,55,8.10
2021,12,31,01,56,6.40
2021,12,31,01,57,8.10
2021,12,31,01,58,11.30
2021,12,31,01,59,12.90
2021,12,31,02,00,12.90
2021,12,31,02,01,11.30
2021,12,31,02,02,9.60
2021,12,31,02,03,14.50
2021,12,31,02,04,17.70
2021,12,31,02,05,16.10
2021,12,31,02,06,12.90
2021,12,31,02,07,14.50
2021,12,31,02,08,16.10
2021,12,31,02,09,16.10
2021,12,31,02,10,11.30
2021,12,31,02,11,14.50
2021,12,31,02,12,12.90
2021,12,31,02,13,17.70
2021,12,31,02,14,19.30
2021,12,31,02,15,14.50
2021,12,31,02,16,9.60
2021,12,31,02,17,12.90
2021,12,31,02,18,16.10
2021,12,31,02,19,14.50
2021,12,31,02,20,16.10
2021,12,31,02,21,16.10
2021,12,31,02,22,16.10
2021,12,31,02,23,14.50
2021,12,31,02,24,14.50
2021,12,31,02,25,14.50
2021,12,31,02,26,12.90
2021,12,31,02,27,12.90
2021,12,31,02,28,14.50
2021,12,31,02,29,14.50
2021,12,31,02,30,14.50
2021,12,31,02,31,12.90
2021,12,31,02,32,16.10
2021,12,31,02,33,16.10
2021,12,31,02,34,17.70
2021,12,31,02,35,17.70
2021,12,31,02,36,16.10
2021,12,31,02,37,14.50
2021,12,31,02,38,12.90
2021,12,31,02,39,14.50
2021,12,31,02,40,12.90
2021,12,31,02,41,14.50
2021,12,31,02,42,14.50
2021,12,31,02,43,12.90
2021,12,31,02,44,11.30
2021,12,31,02,45,11.30
2021,12,31,02,46,14.50
2021,12,31,02,47,16.10
2021,12,31,02,48,16.10
2021,12,31,02,49,19.30
2021,12,31,02,50,19.30
2021,12,31,02,51,19.30
2021,12,31,02,52,14.50
2021,12,31,02,53,16.10
2021,12,31,02,54,14.50
2021,12,31,02,55,16.10
2021,12,31,02,56,19.30
2021,12,31,02,57,19.30
2021,12,31,02,58,16.10
2021,12,31,02,59,14.50
2021,12,31,03,00,17.70
2021,12,31,03,01,12.90
2021,12,31,03,02,16.10
2021,12,31,03,03,14.50
2021,12,31,03,04,20.90
2021,12,31,03,05,16.10
2021,12,31,03,06,16.10
2021,12,31,03,07,16.10
2021,12,31,03,08,19.30
2021,12,31,03,09,22.50
2021,12,31,03,10,17.70
2021,12,31,03,11,14.50
2021,12,31,03,12,14.50
2021,12,31,03,13,17.70
2021,12,31,03,14,19.30
2021,12,31,03,15,20.90
2021,12,31,03,16,17.70
2021,12,31,03,17,17.70
2021,12,31,03,18,20.90
2021,12,31,03,19,19.30
2021,12,31,03,20,19.30
2021,12,31,03,21,24.20
2021,12,31,03,22,20.90
2021,12,31,03,23,22.50
2021,12,31,03,24,24.20
2021,12,31,03,25,22.50
2021,12,31,03,26,25.70
2021,12,31,03,27,24.20
2021,12,31,03,28,22.50
2021,12,31,03,29,24.20
2021,12,31,03,30,22.50
2021,12,31,03,31,25.70
2021,12,31,03,32,22.50
2021,12,31,03,33,20.90
2021,12,31,03,34,19.30
2021,12,31,03,35,22.50
2021,12,31,03,36,17.70
2021,12,31,03,37,19.30
2021,12,31,03,38,17.70
2021,12,31,03,39,19.30
2021,12,31,03,40,17.70
2021,12,31,03,41,16.10
2021,12,31,03,42,16.10
2021,12,31,03,43,19.30
2021,12,31,03,44,19.30
2021,12,31,03,45,19.30
2021,12,31,03,46,20.90
2021,12,31,03,47,20.90
2021,12,31,03,48,17.70
2021,12,31,03,49,17.70
2021,12,31,03,50,17.70
2021,12,31,03,51,19.30
2021,12,31,03,52,22.50
2021,12,31,03,53,22.50
2021,12,31,03,54,20.90
2021,12,31,03,55,22.50
2021,12,31,03,56,22.50
2021,12,31,03,57,22.50
2021,12,31,03,58,19.30
2021,12,31,03,59,19.30
2021,12,31,04,00,24.20
2021,12,31,04,01,25.70
2021,12,31,04,02,25.70
2021,12,31,04,03,24.20
2021,12,31,04,04,25.70
2021,12,31,04,05,24.20
2021,12,31,04,06,19.30
2021,12,31,04,07,20.90
2021,12,31,04,08,19.30
2021,12,31,04,09,24.20
2021,12,31,04,10,24.20
2021,12,31,04,11,17.70
2021,12,31,04,12,19.30
2021,12,31,04,13,17.70
2021,12,31,04,14,19.30
2021,12,31,04,15,17.70
2021,12,31,04,16,14.50
2021,12,31,04,17,11.30
2021,12,31,04,18,16.10
2021,12,31,04,19,14.50
2021,12,31,04,20,12.90
2021,12,31,04,21,11.30
2021,12,31,04,22,16.10
2021,12,31,04,23,16.10
2021,12,31,04,24,14.50
2021,12,31,04,25,9.60
2021,12,31,04,26,14.50
2021,12,31,04,27,17.70
2021,12,31,04,28,19.30
2021,12,31,04,29,24.20
2021,12,31,04,30,20.90
2021,12,31,04,31,24.20
2021,12,31,04,32,24.20
2021,12,31,04,33,19.30
2021,12,31,04,34,19.30
2021,12,31,04,35,17.70
2021,12,31,04,36,20.90
2021,12,31,04,37,20.90
2021,12,31,04,38,17.70
2021,12,31,04,39,17.70
2021,12,31,04,40,14.50
2021,12,31,04,41,12.90
2021,12,31,04,42,9.60
2021,12,31,04,43,16.10
2021,12,31,04,44,8.10
2021,12,31,04,45,9.60
2021,12,31,04,46,11.30
2021,12,31,04,47,14.50
2021,12,31,04,48,12.90
2021,12,31,04,49,9.60
2021,12,31,04,50,6.40
2021,12,31,04,51,8.10
2021,12,31,04,52,8.10
2021,12,31,04,53,9.60
2021,12,31,04,54,6.40
2021,12,31,04,55,6.40
2021,12,31,04,56,8.10
2021,12,31,04,57,8.10
2021,12,31,04,58,11.30
2021,12,31,04,59,8.10
2021,12,31,05,00,8.10
2021,12,31,05,01,6.40
2021,12,31,05,02,6.40
2021,12,31,05,03,6.40
2021,12,31,05,04,4.80
2021,12,31,05,05,3.20
2021,12,31,05,09,6.40
2021,12,31,05,10,9.60
2021,12,31,05,11,8.10
2021,12,31,05,12,6.40
2021,12,31,05,13,8.10
2021,12,31,05,14,8.10
2021,12,31,05,15,8.10
2021,12,31,05,16,6.40
2021,12,31,05,17,8.10
2021,12,31,05,18,9.60
2021,12,31,05,19,8.10
2021,12,31,05,20,8.10
2021,12,31,05,21,8.10
2021,12,31,05,22,9.60
2021,12,31,05,23,12.90
2021,12,31,05,24,14.50
2021,12,31,05,25,16.10
2021,12,31,05,26,11.30
2021,12,31,05,27,9.60
2021,12,31,05,28,12.90
2021,12,31,05,29,8.10
2021,12,31,05,30,11.30
2021,12,31,05,31,8.10
2021,12,31,05,32,12.90
2021,12,31,05,33,8.10
2021,12,31,05,34,12.90
2021,12,31,05,35,14.50
2021,12,31,05,36,14.50
2021,12,31,05,37,17.70
2021,12,31,05,38,16.10
2021,12,31,05,39,17.70
2021,12,31,05,40,16.10
2021,12,31,05,41,14.50
2021,12,31,05,42,14.50
2021,12,31,05,43,16.10
2021,12,31,05,44,17.70
2021,12,31,05,45,16.10
2021,12,31,05,46,14.50
2021,12,31,05,47,14.50
2021,12,31,05,48,14.50
2021,12,31,05,49,19.30
2021,12,31,05,50,20.90
2021,12,31,05,51,19.30
2021,12,31,05,52,14.50
2021,12,31,05,53,16.10
2021,12,31,05,54,9.60
2021,12,31,05,55,16.10
2021,12,31,05,56,17.70
2021,12,31,05,57,14.50
2021,12,31,05,58,14.50
2021,12,31,05,59,17.70
2021,12,31,06,00,16.10
2021,12,31,06,01,16.10
2021,12,31,06,02,16.10
2021,12,31,06,03,16.10
2021,12,31,06,04,14.50
2021,12,31,06,05,16.10
2021,12,31,06,06,20.90
2021,12,31,06,07,20.90
2021,12,31,06,08,19.30
2021,12,31,06,09,14.50
2021,12,31,06,10,11.30
2021,12,31,06,11,14.50
2021,12,31,06,12,16.10
2021,12,31,06,13,20.90
2021,12,31,06,14,17.70
2021,12,31,06,15,19.30
2021,12,31,06,16,22.50
2021,12,31,06,17,19.30
2021,12,31,06,18,19.30
2021,12,31,06,19,16.10
2021,12,31,06,20,17.70
2021,12,31,06,21,17.70
2021,12,31,06,22,16.10
2021,12,31,06,23,16.10
2021,12,31,06,24,11.30
2021,12,31,06,25,11.30
2021,12,31,06,26,16.10
2021,12,31,06,27,16.10
2021,12,31,06,28,14.50
2021,12,31,06,29,19.30
2021,12,31,06,30,19.30
2021,12,31,06,31,20.90
2021,12,31,06,32,22.50
2021,12,31,06,33,20.90
2021,12,31,06,34,16.10
2021,12,31,06,35,16.10
2021,12,31,06,36,20.90
2021,12,31,06,37,22.50
2021,12,31,06,38,19.30
2021,12,31,06,39,14.50
2021,12,31,06,40,19.30
2021,12,31,06,41,20.90
2021,12,31,06,42,19.30
2021,12,31,06,43,14.50
2021,12,31,06,44,14.50
2021,12,31,06,45,16.10
2021,12,31,06,46,17.70
2021,12,31,06,47,14.50
2021,12,31,06,48,17.70
2021,12,31,06,49,20.90
2021,12,31,06,50,19.30
2021,12,31,06,51,14.50
2021,12,31,06,52,14.50
2021,12,31,06,53,17.70
2021,12,31,06,54,17.70
2021,12,31,06,55,16.10
2021,12,31,06,56,19.30
2021,12,31,06,57,24.20
2021,12,31,06,58,24.20
2021,12,31,06,59,19.30
2021,12,31,07,00,20.90
2021,12,31,07,01,19.30
2021,12,31,07,02,22.50
2021,12,31,07,03,20.90
2021,12,31,07,04,19.30
2021,12,31,07,05,25.70
2021,12,31,07,06,22.50
2021,12,31,07,07,20.90
2021,12,31,07,08,27.40
2021,12,31,07,09,24.20
2021,12,31,07,10,20.90
2021,12,31,07,11,20.90
2021,12,31,07,12,16.10
2021,12,31,07,13,20.90
2021,12,31,07,14,17.70
2021,12,31,07,15,14.50
2021,12,31,07,16,14.50
2021,12,31,07,17,16.10
2021,12,31,07,18,16.10
2021,12,31,07,19,19.30
2021,12,31,07,20,19.30
2021,12,31,07,21,17.70
2021,12,31,07,22,17.70
2021,12,31,07,23,19.30
2021,12,31,07,24,19.30
2021,12,31,07,25,19.30
2021,12,31,07,26,17.70
2021,12,31,07,27,19.30
2021,12,31,07,28,14.50
2021,12,31,07,29,19.30
2021,12,31,07,30,16.10
2021,12,31,07,31,19.30
2021,12,31,07,32,20.90
2021,12,31,07,33,19.30
2021,12,31,07,34,22.50
2021,12,31,07,35,22.50
2021,12,31,07,36,22.50
2021,12,31,07,37,17.70
2021,12,31,07,38,17.70
2021,12,31,07,39,19.30
2021,12,31,07,40,19.30
2021,12,31,07,41,17.70
2021,12,31,07,42,16.10
2021,12,31,07,43,16.10
2021,12,31,07,44,17.70
2021,12,31,07,45,16.10
2021,12,31,07,46,17.70
2021,12,31,07,47,17.70
2021,12,31,07,48,19.30
2021,12,31,07,49,17.70
2021,12,31,07,50,19.30
2021,12,31,07,51,19.30
2021,12,31,07,52,17.70
2021,12,31,07,53,20.90
2021,12,31,07,54,19.30
2021,12,31,07,55,17.70
2021,12,31,07,56,20.90
2021,12,31,07,57,17.70
2021,12,31,07,58,16.10
2021,12,31,07,59,16.10
2021,12,31,08,00,17.70
2021,12,31,08,01,19.30
2021,12,31,08,02,19.30
2021,12,31,08,03,17.70
2021,12,31,08,04,16.10
2021,12,31,08,05,16.10
2021,12,31,08,06,17.70
2021,12,31,08,07,17.70
2021,12,31,08,08,22.50
2021,12,31,08,09,16.10
2021,12,31,08,10,17.70
2021,12,31,08,11,17.70
2021,12,31,08,12,16.10
2021,12,31,08,13,19.30
2021,12,31,08,14,16.10
2021,12,31,08,15,12.90
2021,12,31,08,16,17.70
2021,12,31,08,17,16.10
2021,12,31,08,18,16.10
2021,12,31,08,19,22.50
2021,12,31,08,20,19.30
2021,12,31,08,21,17.70
2021,12,31,08,22,17.70
2021,12,31,08,23,17.70
2021,12,31,08,24,17.70
2021,12,31,08,25,20.90
2021,12,31,08,26,20.90
2021,12,31,08,27,17.70
2021,12,31,08,28,17.70
2021,12,31,08,29,17.70
2021,12,31,08,30,19.30
2021,12,31,08,31,19.30
2021,12,31,08,32,17.70
2021,12,31,08,33,16.10
2021,12,31,08,34,19.30
2021,12,31,08,35,19.30
2021,12,31,08,36,17.70
2021,12,31,08,37,24.20
2021,12,31,08,38,17.70
2021,12,31,08,39,19.30
2021,12,31,08,40,19.30
2021,12,31,08,41,17.70
2021,12,31,08,42,16.10
2021,12,31,08,43,14.50
2021,12,31,08,44,17.70
2021,12,31,08,45,17.70
2021,12,31,08,46,19.30
2021,12,31,08,47,17.70
2021,12,31,08,48,19.30
2021,12,31,08,49,19.30
2021,12,31,08,50,17.70
2021,12,31,08,51,20.90
2021,12,31,08,52,20.90
2021,12,31,08,53,22.50
2021,12,31,08,54,22.50
2021,12,31,08,55,20.90
2021,12,31,08,56,22.50
2021,12,31,08,57,25.70
2021,12,31,08,58,20.90
2021,12,31,08,59,16.10
2021,12,31,09,00,17.70
2021,12,31,09,01,17.70
2021,12,31,09,02,17.70
2021,12,31,09,03,14.50
2021,12,31,09,04,9.60
2021,12,31,09,05,17.70
2021,12,31,09,06,17.70
2021,12,31,09,07,17.70
2021,12,31,09,08,22.50
2021,12,31,09,09,24.20
2021,12,31,09,10,22.50
2021,12,31,09,11,19.30
2021,12,31,09,12,19.30
2021,12,31,09,13,20.90
2021,12,31,09,14,19.30
2021,12,31,09,15,19.30
2021,12,31,09,16,19.30
2021,12,31,09,17,19.30
2021,12,31,09,18,16.10
2021,12,31,09,19,14.50
2021,12,31,09,20,16.10
2021,12,31,09,21,17.70
2021,12,31,09,22,20.90
2021,12,31,09,23,14.50
2021,12,31,09,24,11.30
2021,12,31,09,25,14.50
2021,12,31,09,26,17.70
2021,12,31,09,27,20.90
2021,12,31,09,28,16.10
2021,12,31,09,29,17.70
2021,12,31,09,30,19.30
2021,12,31,09,31,16.10
2021,12,31,09,32,16.10
2021,12,31,09,33,17.70
2021,12,31,09,34,17.70
2021,12,31,09,35,19.30
2021,12,31,09,36,19.30
2021,12,31,09,37,17.70
2021,12,31,09,38,20.90
2021,12,31,09,39,19.30
2021,12,31,09,40,20.90
2021,12,31,09,41,16.10
2021,12,31,09,42,16.10
2021,12,31,09,43,16.10
2021,12,31,09,44,17.70
2021,12,31,09,45,16.10
2021,12,31,09,46,17.70
2021,12,31,09,47,14.50
2021,12,31,09,48,20.90
2021,12,31,09,49,17.70
2021,12,31,09,50,19.30
2021,12,31,09,51,17.70
2021,12,31,09,52,16.10
2021,12,31,09,53,22.50
2021,12,31,09,54,20.90
2021,12,31,09,55,16.10
2021,12,31,09,56,19.30
2021,12,31,09,57,19.30
2021,12,31,09,58,16.10
2021,12,31,09,59,20.90
2021,12,31,10,00,17.70
2021,12,31,10,01,17.70
2021,12,31,10,02,19.30
2021,12,31,10,03,22.50
2021,12,31,10,04,20.90
2021,12,31,10,05,19.30
2021,12,31,10,06,16.10
2021,12,31,10,07,17.70
2021,12,31,10,08,14.50
2021,12,31,10,09,17.70
2021,12,31,10,10,16.10
2021,12,31,10,11,16.10
2021,12,31,10,12,12.90
2021,12,31,10,13,8.10
2021,12,31,10,14,4.80
2021,12,31,10,15,12.90
2021,12,31,10,16,16.10
2021,12,31,10,17,11.30
2021,12,31,10,18,12.90
2021,12,31,10,19,14.50
2021,12,31,10,20,14.50
2021,12,31,10,21,14.50
2021,12,31,10,22,14.50
2021,12,31,10,23,16.10
2021,12,31,10,24,16.10
2021,12,31,10,25,22.50
2021,12,31,10,26,19.30
2021,12,31,10,27,20.90
2021,12,31,10,28,17.70
2021,12,31,10,29,16.10
2021,12,31,10,30,19.30
2021,12,31,10,31,16.10
2021,12,31,10,32,14.50
2021,12,31,10,33,19.30
2021,12,31,10,34,19.30
2021,12,31,10,35,16.10
2021,12,31,10,36,14.50
2021,12,31,10,37,14.50
2021,12,31,10,38,14.50
2021,12,31,10,39,16.10
2021,12,31,10,40,20.90
2021,12,31,10,41,17.70
2021,12,31,10,42,17.70
2021,12,31,10,43,16.10
2021,12,31,10,44,16.10
2021,12,31,10,45,17.70
2021,12,31,10,46,20.90
2021,12,31,10,47,17.70
2021,12,31,10,48,12.90
2021,12,31,10,49,11.30
2021,12,31,10,50,12.90
2021,12,31,10,51,17.70
2021,12,31,10,52,12.90
2021,12,31,10,53,11.30
2021,12,31,10,54,17.70
2021,12,31,10,55,14.50
2021,12,31,10,56,12.90
2021,12,31,10,57,14.50
2021,12,31,10,58,16.10
2021,12,31,10,59,17.70
2021,12,31,11,00,9.60
2021,12,31,11,01,19.30
2021,12,31,11,02,19.30
2021,12,31,11,03,20.90
2021,12,31,11,04,19.30
2021,12,31,11,05,19.30
2021,12,31,11,06,17.70
2021,12,31,11,07,22.50
2021,12,31,11,08,17.70
2021,12,31,11,09,19.30
2021,12,31,11,10,14.50
2021,12,31,11,11,17.70
2021,12,31,11,12,14.50
2021,12,31,11,13,22.50
2021,12,31,11,14,22.50
2021,12,31,11,15,17.70
2021,12,31,11,16,14.50
2021,12,31,11,17,19.30
2021,12,31,11,18,20.90
2021,12,31,11,19,20.90
2021,12,31,11,20,20.90
2021,12,31,11,21,22.50
2021,12,31,11,22,20.90
2021,12,31,11,23,22.50
2021,12,31,11,24,22.50
2021,12,31,11,25,20.90
2021,12,31,11,26,22.50
2021,12,31,11,27,22.50
2021,12,31,11,28,17.70
2021,12,31,11,29,17.70
2021,12,31,11,30,22.50
2021,12,31,11,31,22.50
2021,12,31,11,32,20.90
2021,12,31,11,33,19.30
2021,12,31,11,34,20.90
2021,12,31,11,35,20.90
2021,12,31,11,36,22.50
2021,12,31,11,37,19.30
2021,12,31,11,38,24.20
2021,12,31,11,39,24.20
2021,12,31,11,40,19.30
2021,12,31,11,41,19.30
2021,12,31,11,42,22.50
2021,12,31,11,43,20.90
2021,12,31,11,44,22.50
2021,12,31,11,45,19.30
2021,12,31,11,46,22.50
2021,12,31,11,47,27.40
2021,12,31,11,48,22.50
2021,12,31,11,49,19.30
2021,12,31,11,50,22.50
2021,12,31,11,51,22.50
2021,12,31,11,52,20.90
2021,12,31,11,53,14.50
2021,12,31,11,54,22.50
2021,12,31,11,55,20.90
2021,12,31,11,56,17.70
2021,12,31,11,57,19.30
2021,12,31,11,58,14.50
2021,12,31,11,59,17.70
2021,12,31,12,00,17.70
2021,12,31,12,01,22.50
2021,12,31,12,02,20.90
2021,12,31,12,03,20.90
2021,12,31,12,04,17.70
2021,12,31,12,05,17.70
2021,12,31,12,06,16.10
2021,12,31,12,07,16.10
2021,12,31,12,08,16.10
2021,12,31,12,09,14.50
2021,12,31,12,10,20.90
2021,12,31,12,11,20.90
2021,12,31,12,12,19.30
2021,12,31,12,13,16.10
2021,12,31,12,14,12.90
2021,12,31,12,15,12.90
2021,12,31,12,16,14.50
2021,12,31,12,17,14.50
2021,12,31,12,18,17.70
2021,12,31,12,19,14.50
2021,12,31,12,20,19.30
2021,12,31,12,21,16.10
2021,12,31,12,22,14.50
2021,12,31,12,23,12.90
2021,12,31,12,24,14.50
2021,12,31,12,25,14.50
2021,12,31,12,26,16.10
2021,12,31,12,27,17.70
2021,12,31,12,28,19.30
2021,12,31,12,29,14.50
2021,12,31,12,30,16.10
2021,12,31,12,31,17.70
2021,12,31,12,32,14.50
2021,12,31,12,33,19.30
2021,12,31,12,34,22.50
2021,12,31,12,35,20.90
2021,12,31,12,36,19.30
2021,12,31,12,37,22.50
2021,12,31,12,38,20.90
2021,12,31,12,39,17.70
2021,12,31,12,40,16.10
2021,12,31,12,41,20.90
2021,12,31,12,42,22.50
2021,12,31,12,43,24.20
2021,12,31,12,44,22.50
2021,12,31,12,45,17.70
2021,12,31,12,46,16.10
2021,12,31,12,47,14.50
2021,12,31,12,48,24.20
2021,12,31,12,49,24.20
2021,12,31,12,50,19.30
2021,12,31,12,51,17.70
2021,12,31,12,52,22.50
2021,12,31,12,53,22.50
2021,12,31,12,54,14.50
2021,12,31,12,55,19.30
2021,12,31,12,56,17.70
2021,12,31,12,57,22.50
2021,12,31,12,58,22.50
2021,12,31,12,59,17.70
2021,12,31,13,00,16.10
2021,12,31,13,01,17.70
2021,12,31,13,02,22.50
2021,12,31,13,03,14.50
2021,12,31,13,04,12.90
2021,12,31,13,05,17.70
2021,12,31,13,06,14.50
2021,12,31,13,07,16.10
2021,12,31,13,08,16.10
2021,12,31,13,09,14.50
2021,12,31,13,10,16.10
2021,12,31,13,11,24.20
2021,12,31,13,12,20.90
2021,12,31,13,13,19.30
2021,12,31,13,14,16.10
2021,12,31,13,15,12.90
2021,12,31,13,16,19.30
2021,12,31,13,17,16.10
2021,12,31,13,18,17.70
2021,12,31,13,19,16.10
2021,12,31,13,20,14.50
2021,12,31,13,21,14.50
2021,12,31,13,22,12.90
2021,12,31,13,23,12.90
2021,12,31,13,24,9.60
2021,12,31,13,25,4.80
2021,12,31,13,26,19.30
2021,12,31,13,27,17.70
2021,12,31,13,28,14.50
2021,12,31,13,29,19.30
2021,12,31,13,30,17.70
2021,12,31,13,31,16.10
2021,12,31,13,32,17.70
2021,12,31,13,33,17.70
2021,12,31,13,34,12.90
2021,12,31,13,35,14.50
2021,12,31,13,36,12.90
2021,12,31,13,37,12.90
2021,12,31,13,38,17.70
2021,12,31,13,39,19.30
2021,12,31,13,40,19.30
2021,12,31,13,41,17.70
2021,12,31,13,42,16.10
2021,12,31,13,43,12.90
2021,12,31,13,44,12.90
2021,12,31,13,45,19.30
2021,12,31,13,46,16.10
2021,12,31,13,47,14.50
2021,12,31,13,48,19.30
2021,12,31,13,49,16.10
2021,12,31,13,50,16.10
2021,12,31,13,51,20.90
2021,12,31,13,52,17.70
2021,12,31,13,53,17.70
2021,12,31,13,54,20.90
2021,12,31,13,55,24.20
2021,12,31,13,56,17.70
2021,12,31,13,57,17.70
2021,12,31,13,58,16.10
2021,12,31,13,59,12.90
2021,12,31,14,00,14.50
2021,12,31,14,01,11.30
2021,12,31,14,02,19.30
2021,12,31,14,03,16.10
2021,12,31,14,04,17.70
2021,12,31,14,05,17.70
2021,12,31,14,06,16.10
2021,12,31,14,07,19.30
2021,12,31,14,08,16.10
2021,12,31,14,09,11.30
2021,12,31,14,10,11.30
2021,12,31,14,11,16.10
2021,12,31,14,12,9.60
2021,12,31,14,13,12.90
2021,12,31,14,14,14.50
2021,12,31,14,15,16.10
2021,12,31,14,16,12.90
2021,12,31,14,17,11.30
2021,12,31,14,18,16.10
2021,12,31,14,19,14.50
2021,12,31,14,20,9.60
2021,12,31,14,21,9.60
2021,12,31,14,22,20.90
2021,12,31,14,23,20.90
2021,12,31,14,24,16.10
2021,12,31,14,25,14.50
2021,12,31,14,26,11.30
2021,12,31,14,27,14.50
2021,12,31,14,28,14.50
2021,12,31,14,29,16.10
2021,12,31,14,30,16.10
2021,12,31,14,31,12.90
2021,12,31,14,32,16.10
2021,12,31,14,33,11.30
2021,12,31,14,34,12.90
2021,12,31,14,35,9.60
2021,12,31,14,36,8.10
2021,12,31,14,37,12.90
2021,12,31,14,38,12.90
2021,12,31,14,39,12.90
2021,12,31,14,40,12.90
2021,12,31,14,41,9.60
2021,12,31,14,42,11.30
2021,12,31,14,43,12.90
2021,12,31,14,44,12.90
2021,12,31,14,45,14.50
2021,12,31,14,46,12.90
2021,12,31,14,47,9.60
2021,12,31,14,48,11.30
2021,12,31,14,49,14.50
2021,12,31,14,50,12.90
2021,12,31,14,51,12.90
2021,12,31,14,52,8.10
2021,12,31,14,53,8.10
2021,12,31,14,54,4.80
2021,12,31,14,55,9.60
2021,12,31,14,56,11.30
2021,12,31,14,57,9.60
2021,12,31,14,58,4.80
2021,12,31,14,59,8.10
2021,12,31,15,00,8.10
2021,12,31,15,01,11.30
2021,12,31,15,02,12.90
2021,12,31,15,03,8.10
2021,12,31,15,04,12.90
2021,12,31,15,05,12.90
2021,12,31,15,06,11.30
2021,12,31,15,07,16.10
2021,12,31,15,08,16.10
2021,12,31,15,09,14.50
2021,12,31,15,10,9.60
2021,12,31,15,11,8.10
2021,12,31,15,12,14.50
2021,12,31,15,13,16.10
2021,12,31,15,14,11.30
2021,12,31,15,15,12.90
2021,12,31,15,16,11.30
2021,12,31,15,17,6.40
2021,12,31,15,18,6.40
2021,12,31,15,19,12.90
2021,12,31,15,20,14.50
2021,12,31,15,21,12.90
2021,12,31,15,22,8.10
2021,12,31,15,23,8.10
2021,12,31,15,24,8.10
2021,12,31,15,25,8.10
2021,12,31,15,26,9.60
2021,12,31,15,27,11.30
2021,12,31,15,28,6.40
2021,12,31,15,29,3.20
2021,12,31,15,30,3.20
2021,12,31,15,31,4.80
2021,12,31,15,32,4.80
2021,12,31,15,33,4.80
2021,12,31,15,34,4.80
2021,12,31,15,35,3.20
2021,12,31,15,36,1.60
2021,12,31,15,37,1.60
2021,12,31,15,38,1.60
2021,12,31,15,39,1.60
2021,12,31,15,40,8.10
2021,12,31,15,41,12.90
2021,12,31,15,42,12.90
2021,12,31,15,43,14.50
2021,12,31,15,44,11.30
2021,12,31,15,45,11.30
2021,12,31,15,46,8.10
2021,12,31,15,47,8.10
2021,12,31,15,48,4.80
2021,12,31,15,49,9.60
2021,12,31,15,50,4.80
2021,12,31,15,51,6.40
2021,12,31,15,52,12.90
2021,12,31,15,53,12.90
2021,12,31,15,54,8.10
2021,12,31,15,55,8.10
2021,12,31,15,56,8.10
2021,12,31,15,57,6.40
2021,12,31,15,58,8.10
2021,12,31,15,59,9.60
2021,12,31,16,00,11.30
2021,12,31,16,01,6.40
2021,12,31,16,02,6.40
2021,12,31,16,03,4.80
2021,12,31,16,04,4.80
2021,12,31,16,05,9.60
2021,12,31,16,06,9.60
2021,12,31,16,07,12.90
2021,12,31,16,08,12.90
2021,12,31,16,09,8.10
2021,12,31,16,10,6.40
2021,12,31,16,11,6.40
2021,12,31,16,12,8.10
2021,12,31,16,13,8.10
2021,12,31,16,14,8.10
2021,12,31,16,15,4.80
2021,12,31,16,16,9.60
2021,12,31,16,17,9.60
2021,12,31,16,18,6.40
2021,12,31,16,19,4.80
2021,12,31,16,20,6.40
2021,12,31,16,21,8.10
2021,12,31,16,22,8.10
2021,12,31,16,23,6.40
2021,12,31,16,24,8.10
2021,12,31,16,25,8.10
2021,12,31,16,26,8.10
2021,12,31,16,27,6.40
2021,12,31,16,28,3.20
2021,12,31,16,29,3.20
2021,12,31,16,30,1.60
2021,12,31,16,32,1.60
2021,12,31,16,33,3.20
2021,12,31,16,36,1.60
2021,12,31,16,37,3.20
2021,12,31,16,38,3.20
2021,12,31,16,39,1.60
2021,12,31,16,40,1.60
2021,12,31,16,46,4.80
2021,12,31,16,47,6.40
2021,12,31,16,48,9.60
2021,12,31,16,49,12.90
2021,12,31,16,50,6.40
2021,12,31,16,51,6.40
2021,12,31,16,52,8.10
2021,12,31,16,53,9.60
2021,12,31,16,54,8.10
2021,12,31,16,55,4.80
2021,12,31,16,56,6.40
2021,12,31,16,57,8.10
2021,12,31,16,58,6.40
2021,12,31,16,59,8.10
2021,12,31,17,00,6.40
2021,12,31,17,01,6.40
2021,12,31,17,02,4.80
2021,12,31,17,03,6.40
2021,12,31,17,04,6.40
2021,12,31,17,05,11.30
2021,12,31,17,06,8.10
2021,12,31,17,07,8.10
2021,12,31,17,08,11.30
2021,12,31,17,09,9.60
2021,12,31,17,10,6.40
2021,12,31,17,11,9.60
2021,12,31,17,12,6.40
2021,12,31,17,13,8.10
2021,12,31,17,14,8.10
2021,12,31,17,15,9.60
2021,12,31,17,16,8.10
2021,12,31,17,17,12.90
2021,12,31,17,18,8.10
2021,12,31,17,19,9.60
2021,12,31,17,20,6.40
2021,12,31,17,21,4.80
2021,12,31,17,22,4.80
2021,12,31,17,23,6.40
2021,12,31,17,24,6.40
2021,12,31,17,25,6.40
2021,12,31,17,26,6.40
2021,12,31,17,27,8.10
2021,12,31,17,28,8.10
2021,12,31,17,29,8.10
2021,12,31,17,30,6.40
2021,12,31,17,31,8.10
2021,12,31,17,32,8.10
2021,12,31,17,33,11.30
2021,12,31,17,34,6.40
2021,12,31,17,35,6.40
2021,12,31,17,36,9.60
2021,12,31,17,37,8.10
2021,12,31,17,38,8.10
2021,12,31,17,39,11.30
2021,12,31,17,40,6.40
2021,12,31,17,41,8.10
2021,12,31,17,42,6.40
2021,12,31,17,43,6.40
2021,12,31,17,44,6.40
2021,12,31,17,45,6.40
2021,12,31,17,46,6.40
2021,12,31,17,47,4.80
2021,12,31,17,48,6.40
2021,12,31,17,49,8.10
2021,12,31,17,50,8.10
2021,12,31,17,51,6.40
2021,12,31,17,52,8.10
2021,12,31,17,53,8.10
2021,12,31,17,54,8.10
2021,12,31,17,55,8.10
2021,12,31,17,56,8.10
2021,12,31,17,57,11.30
2021,12,31,17,58,6.40
2021,12,31,17,59,6.40
2021,12,31,18,00,8.10
2021,12,31,18,01,8.10